Regional Weather Roundup
Issued by NWS Jackson, KY

Home | Current Version | Previous Version | Text Only | Print | Product List | Glossary Off
Versions: 1 2 3 4 5 6 7 8 9 10 11 12 13 14 15 16 17 18 19 20 21 22 23 24 25 26 27 28 29 30 31 32 33 34 35 36 37 38 39 40 41 42 43 44 45 46 47 48 49 50

000
ASUS43 KJKL 112110
RWRJKL

EAST KENTUCKY HOURLY WEATHER ROUNDUP
NATIONAL WEATHER SERVICE JACKSON KY
400 PM EST THU FEB 11 2016

NOTE: "FAIR" INDICATES FEW OR NO CLOUDS BELOW 12,000 FEET WITH
NO SIGNIFICANT WEATHER AND/OR OBSTRUCTIONS TO VISIBILITY.

* THESE REPORTS ARE NOT UNDER NWS QUALITY CONTROL AND MAY NOT
  REPORT WEATHER SUCH AS PRECIPITATION AND FOG.

KYZ079-080-083-085-087-088-110-112-115-119-120-112200
...EASTERN KENTUCKY...

CITY           SKY/WX    TMP DP  RH WIND       PRES   REMARKS
JACKSON        SUNNY     30   7  37 VRB6      30.19S WCI  24
LONDON         SUNNY     33  10  38 NW3       30.20S
SOMERSET*      SUNNY     32  18  55 N3        30.24S
MONTICELLO*    SUNNY     33  18  53 VRB5      30.24S WCI  29
WILLIAMSBURG*  CLEAR     36  18  48 NW7       30.20S WCI  30
MIDDLESBORO*   MOSUNNY   36  18  48 N9        30.21R WCI  29
HARLAN APT*      N/A     32  14  47 SW5       30.17R WCI  27
HAZARD APT*    CLEAR     30   7  37 N3        30.20S
BLACK MTN*       N/A     25  10  54 NE6         N/A  WCI  18
BIG SANDY*     CLEAR     29   8  41 W8        30.21R WCI  21
MOREHEAD APT*  CLEAR     27   9  46 NW8       30.26R WCI  18
$$

KYZ035-036-041-042-044-050-067-078-099-112200
...CENTRAL KENTUCKY...

CITY           SKY/WX    TMP DP  RH WIND       PRES   REMARKS
MT STERLING*   MOSUNNY   28  14  54 CALM      30.25S
DANVILLE*      SUNNY     28  12  50 NW5       30.25R WCI  23
RICHMOND*      SUNNY     28  10  47 N6        30.23R WCI  22
LEXINGTON      SUNNY     28  12  51 CALM      30.24S
FRANKFORT      SUNNY     29   7  39 NW6       30.25R WCI  23
$$

KYZ091>093-OHZ055-061-077-WVZ005-015-034-035-042-112200
...SOUTHERN OHIO/WEST VIRGINIA...

CITY           SKY/WX    TMP DP  RH WIND       PRES   REMARKS
COVINGTON      MOSUNNY   25   6  44 W3        30.26S
COLUMBUS       CLOUDY    21   5  50 W9        30.25R WCI  11
DAYTON         PTSUNNY   21   8  57 NW5       30.25S WCI  15
WILMINGTON     CLOUDY    21   5  50 CALM      30.24R
HUNTINGTON       N/A     29   6  38 N9        30.24R WCI  20
CHARLESTON     PTSUNNY   24   4  42 NW9       30.23R WCI  14
PINEVILLE*       N/A     28   1  32 MISG      30.20R
BECKLEY          N/A     21   3  45 NW8       30.09R WCI  11
$$

VAZ002-007-008-TNZ017-027-036-066-071-112200
...SOUTHWEST VIRGINIA/EAST TENNESSEE...

CITY           SKY/WX    TMP DP  RH WIND       PRES   REMARKS
BRISTOL        MOSUNNY   35  16  45 W8        30.15S WCI  29
KNOXVILLE      MOSUNNY   42  19  39 VRB3      30.17S
OAK RIDGE      PTSUNNY   42  19  39 VRB5      30.19S
CROSSVILLE     SUNNY     39  20  46 N7        30.14S WCI  34
NASHVILLE      MOSUNNY   44  21  40 N8        30.22S
$$

...KEY TO REMARKS...
VSB - VISIBILITY IN MILES
WCI - WIND CHILL INDEX
HX  - HEAT INDEX

$$



USA.gov is the U.S. government's official web portal to all federal, state and local government web resources and services.